Location: Gipe Farm
(40.9466°N, 95.5370°W)
Time: 14:13:58
(UTC-05:00)

Cosmos 1842 - Visible Passes

Search period start: 30 July 2014 00:00
Search period end: 09 August 2014 00:00
Orbit: 538 x 555 km, 82.5° (Epoch: 29 July)

Date Brightness Start Highest point End Pass type
(mag) Time Alt. Az. Time Alt. Az. Time Alt. Az.
30 Jul 5.7 00:59:25 10° NNE 01:01:03 18° NE 01:01:03 18° NE visible
30 Jul 5.8 02:35:40 10° NW 02:36:42 15° NW 02:36:42 15° NW visible
31 Jul 5.7 00:54:01 10° NNE 00:55:37 18° NE 00:55:37 18° NE visible
31 Jul 5.9 02:30:25 10° NW 02:31:15 14° NW 02:31:15 14° NW visible
01 Aug 5.7 00:48:37 10° NNE 00:50:11 19° NE 00:50:11 19° NE visible
01 Aug 6.0 02:25:09 10° NW 02:25:49 13° NW 02:25:49 13° NW visible
02 Aug 5.7 00:43:13 10° NNE 00:44:45 19° NNE 00:44:45 19° NNE visible
02 Aug 6.1 02:19:54 10° NW 02:20:24 12° NW 02:20:24 12° NW visible
03 Aug 5.7 00:37:49 10° NNE 00:39:20 19° NNE 00:39:20 19° NNE visible
03 Aug 6.2 02:14:39 10° NW 02:14:59 11° NW 02:14:59 11° NW visible
04 Aug 5.7 00:32:25 10° NNE 00:33:56 19° NNE 00:33:56 19° NNE visible
04 Aug 6.2 02:09:25 10° NW 02:09:34 11° NW 02:09:34 11° NW visible
05 Aug 5.6 00:27:01 10° NNE 00:28:31 20° NNE 00:28:31 20° NNE visible
06 Aug 5.6 00:21:37 10° N 00:23:07 20° NNE 00:23:07 20° NNE visible
07 Aug 5.6 00:16:12 10° N 00:17:44 20° NNE 00:17:44 20° NNE visible
08 Aug 5.6 00:10:48 10° N 00:12:21 21° NNE 00:12:21 21° NNE visible
